Weather History for Forrest, WE

Change the Weather History Date:

Friday, February 8, 2013

  Actual Average Record
Temperature  
Mean Temperature 74 °F -  
Max Temperature 92 °F - - ()
Min Temperature 55 °F - - ()
Cooling Degree Days 8    
Growing Degree Days 24 (Base 50)    
Moisture  
Dew Point 51 °F    
Average Humidity 48    
Maximum Humidity 88    
Minimum Humidity 8    
Precipitation  
Precipitation 0.00 in - - ()
Sea Level Pressure  
Sea Level Pressure 30.01 in    
Wind  
Wind Speed 8 mph ()    
Max Wind Speed 23 mph    
Max Gust Speed 33 mph    
T = Trace of Precipitation, MM = Missing Value Source: Averaged Metar Reports

Daily Weather History Graph

Daily Weather History Graph

Search for Another Location

Airport:

Trip Planner

Search our weather history database for the weather conditions in past years. The results will help you decide how hot, cold, wet, or windy it might be!

Date:

Astronomy

Feb. 08, 2013 Rise Set
Actual Time 5:00 AM WST 6:22 PM WST
Civil Twilight 4:35 AM WST 6:47 PM WST
Nautical Twilight 4:04 AM WST 7:18 PM WST
Astronomical Twilight 3:32 AM WST 7:49 PM WST
Moon 2:33 AM WST (2/8) 4:32 PM WST (2/8)
Length of Visible Light 14h 12m
Length of Day
13h 21m
Waning Crescent, 6% of the Moon is Illuminated
Feb 8
Waning Crescent
Feb 10
New
Feb 18
First Quarter
Feb 26
Full
Mar 5
Last Quarter

Hourly Weather History & Observations

Time (WST) Temp. Dew Point Humidity Pressure Visibility Wind Dir Wind Speed Gust Speed Precip Events Conditions
12:00 AM 62 °F 53 °F 65% 30.02 in - ESE 6.9 mph - -  
12:00 AM 62.6 °F 53.6 °F 72% 30.04 in - ESE 6.9 mph - N/A   Unknown
1:00 AM 60.8 °F 51.8 °F 72% 30.01 in - ESE 4.6 mph - N/A   Unknown
2:00 AM 59 °F 52 °F 70% 30.00 in - ESE 5.8 mph - -  
2:00 AM 59.0 °F 51.8 °F 77% 30.01 in - ESE 5.8 mph - N/A   Unknown
3:00 AM 57.2 °F 50.0 °F 77% 30.01 in - ESE 4.6 mph - N/A   Unknown
4:00 AM 57.2 °F 51.8 °F 82% 30.01 in - ESE 5.8 mph - N/A   Unknown
5:00 AM 56 °F 52 °F 83% 30.03 in - Calm Calm - -  
5:00 AM 55.4 °F 51.8 °F 88% 30.04 in - Calm Calm - N/A   Unknown
6:00 AM 62 °F 57 °F 78% 30.06 in - ESE 4.6 mph - -  
6:00 AM 62.6 °F 57.2 °F 82% 30.06 in - ESE 4.6 mph - N/A   Unknown
7:00 AM 68.0 °F 57.2 °F 68% 30.06 in - East 10.4 mph - N/A   Unknown
8:00 AM 72 °F 54 °F 44% 30.06 in - East 9.2 mph - -  
8:00 AM 71.6 °F 55.4 °F 57% 30.06 in - East 9.2 mph - N/A   Unknown
9:00 AM 77.0 °F 53.6 °F 44% 30.06 in - ENE 8.1 mph 20.7 mph N/A   Unknown
10:00 AM 78.8 °F 50.0 °F 36% 30.06 in - East 9.2 mph - N/A   Unknown
11:00 AM 82 °F 47 °F 19% 30.01 in - SSW 5.8 mph - -  
11:00 AM 82.4 °F 46.4 °F 28% 30.04 in - SSW 5.8 mph - N/A   Unknown
12:00 PM 85 °F 46 °F 16% 29.99 in - SW 8.1 mph - -  
12:00 PM 86.0 °F 46.4 °F 25% 30.01 in - SW 8.1 mph - N/A   Unknown
1:00 PM 87.8 °F 44.6 °F 22% 29.98 in - South 9.2 mph - N/A   Unknown
2:00 PM 90 °F 41 °F 10% 29.94 in - SSW 11.5 mph - -  
2:00 PM 89.6 °F 41.0 °F 18% 29.95 in - SSW 11.5 mph - N/A   Unknown
3:00 PM 91 °F 39 °F 8% 29.94 in - SSW 12.7 mph - -  
3:00 PM 91.4 °F 39.2 °F 16% 29.95 in - SSW 12.7 mph - N/A   Unknown
4:00 PM 91.4 °F 37.4 °F 15% 29.95 in - South 9.2 mph - N/A   Unknown
4:44 PM 87.8 °F 50.0 °F 27% 29.95 in - SSE 17.3 mph 28.8 mph N/A   Unknown
5:00 PM 84 °F 51 °F 22% 29.94 in - SSE 23.0 mph - -  
5:00 PM 84.2 °F 51.8 °F 33% 29.95 in - SSE 23.0 mph - N/A   Unknown
5:12 PM 80.6 °F 51.8 °F 37% 29.95 in - SE 21.9 mph 33.4 mph N/A   Unknown
6:00 PM 78 °F 52 °F 30% 29.97 in - SE 17.3 mph - -  
6:00 PM 78.8 °F 51.8 °F 39% 29.98 in - SE 17.3 mph - N/A   Unknown
7:00 PM 75.2 °F 53.6 °F 47% 30.01 in - SE 18.4 mph - N/A   Unknown
8:00 PM 72 °F 54 °F 44% 30.01 in - SE 16.1 mph - -  
8:00 PM 71.6 °F 55.4 °F 57% 30.04 in - SE 16.1 mph - N/A   Unknown
9:00 PM 69 °F 55 °F 51% 30.04 in - SE 15.0 mph - -  
9:00 PM 69.8 °F 55.4 °F 60% 30.04 in - SE 15.0 mph - N/A   Unknown
10:00 PM 66.2 °F 57.2 °F 73% 30.04 in - SE 10.4 mph - N/A   Unknown
11:00 PM 65 °F 57 °F 67% 30.04 in - SE 8.1 mph - -  
11:00 PM 64.4 °F 57.2 °F 77% 30.04 in - SE 8.1 mph - N/A   Unknown